This is the latest recevied weather packets stored in our database for station/object KE8ZLU. If no packets are shown the sender has not sent any weather packets the latest 10 day(s).
| Time | Temp. | Humidity | Pressure | Rain* | Wind** | Luminosity | Snow |
|---|---|---|---|---|---|---|---|
| 1777402532 | 13.33° C | 79% | 1013.4 hPa | 0 mm | - | 335 W/m² | - |
| 1777402229 | 13.33° C | 79% | 1013.6 hPa | 0 mm | - | 283 W/m² | - |
| 1777401924 | 12.78° C | 79% | 1013.7 hPa | 0 mm | - | 300 W/m² | - |
| 1777401622 | 12.78° C | 80% | 1013.7 hPa | 0 mm | - | 213 W/m² | - |
| 1777401320 | 13.33° C | 79% | 1013.7 hPa | 0 mm | - | 275 W/m² | - |
| 1777401015 | 13.33° C | 79% | 1013.5 hPa | 0 mm | - | 381 W/m² | - |
| 1777400711 | 13.33° C | 80% | 1013.4 hPa | 0 mm | - | 397 W/m² | - |
| 1777400409 | 12.78° C | 80% | 1013.5 hPa | 0 mm | - | 370 W/m² | - |
| 1777400109 | 12.22° C | 81% | 1013.3 hPa | 0 mm | - | 293 W/m² | - |
| 1777399806 | 12.78° C | 82% | 1013.3 hPa | 0 mm | - | 197 W/m² | - |
| 1777399503 | 12.78° C | 82% | 1013.5 hPa | 0 mm | - | 209 W/m² | - |
| 1777399201 | 12.22° C | 81% | 1013.5 hPa | 0 mm | - | 217 W/m² | - |
| 1777398897 | 12.22° C | 83% | 1013.3 hPa | 0 mm | - | 270 W/m² | - |
| 1777398594 | 12.22° C | 83% | 1013.3 hPa | 0 mm | - | 198 W/m² | - |
| 1777398290 | 12.22° C | 84% | 1013.3 hPa | 0 mm | - | 204 W/m² | - |
| 1777397989 | 11.67° C | 84% | 1013.2 hPa | 0 mm | - | 152 W/m² | - |
| 1777397684 | 11.67° C | 84% | 1013.2 hPa | 0 mm | - | 150 W/m² | - |
| 1777397380 | 11.67° C | 85% | 1013.3 hPa | 0 mm | - | 152 W/m² | - |
| 1777397077 | 11.67° C | 84% | 1013.1 hPa | 0 mm | - | 159 W/m² | - |
| 1777396773 | 11.67° C | 84% | 1013.2 hPa | 0 mm | - | 138 W/m² | - |
| 1777396471 | 11.67° C | 84% | 1013 hPa | 0 mm | - | 172 W/m² | - |
| 1777396167 | 11.67° C | 84% | 1013 hPa | 0 mm | - | 183 W/m² | - |
| 1777395863 | 11.67° C | 83% | 1013.1 hPa | 0 mm | - | 204 W/m² | - |
| 1777395559 | 11.67° C | 84% | 1013.1 hPa | 0 mm | - | 198 W/m² | - |
| 1777395255 | 11.67° C | 85% | 1012.9 hPa | 0 mm | - | 168 W/m² | - |
* Rain latest hour (hover to see other rain measurements)
** Current wind speed in m/s (hover to see current wind gust speed)